Location: Białystok
(53.1343°N, 23.1544°E)
Time: 07:45:42
(UTC+01:00)

ISS - Pass Details

Date: 29 January 2019
Orbit: 403 x 411 km, 51.6° (Epoch: 18 February)

Event Time Altitude Azimuth Distance (km) Brightness Sun altitude
Rises 18:17:35 0° 259° (WSW) 2,335 1.6 -19.7°
Reaches altitude 10° 18:19:40 10° 256° (WSW) 1,476 0.2 -20.0°
Enters shadow 18:22:46 64° 199° (SSW) 461 -3.6 -20.5°
